Parsons, KS

6:21 PM CDT on May 26, 2017 (GMT -0500)
Tri-City

Weather History for KPPF - February, 2014

Change the Weather History Date:

Friday, February 7, 2014

  Actual Average Record
Temperature  
Mean Temperature 16 °F -  
Max Temperature 23 °F 40 °F 73 °F (2009)
Min Temperature 10 °F 19 °F -6 °F (1989)
Degree Days  
Heating Degree Days 48    
Moisture  
Dew Point 7 °F    
Average Humidity 64    
Maximum Humidity 75    
Minimum Humidity 55    
Precipitation  
Precipitation 0.00 in - - ()
Sea Level Pressure  
Sea Level Pressure 30.36 in    
Wind  
Wind Speed 3 mph (East)    
Max Wind Speed 7 mph    
Max Gust Speed -    
Visibility 10 miles    
Events      
Averages and records for this station are not official NWS values.
T = Trace of Precipitation, MM = Missing Value Source: NWS Daily Summary

Daily Weather History Graph

Daily Weather History Graph

Search for Another Location

Airport or City:

Trip Planner

Search our weather history database for the weather conditions in past years. The results will help you decide how hot, cold, wet, or windy it might be!

Date:

Astronomy

Feb. 07, 2014 Rise Set
Actual Time 7:19 AM CST 5:53 PM CST
Civil Twilight 6:52 AM CST 6:20 PM CST
Nautical Twilight 6:21 AM CST 6:51 PM CST
Astronomical Twilight 5:51 AM CST 7:21 PM CST
Moon 12:06 PM CST (2/7) 1:35 AM CST (2/7)
Length of Visible Light 11h 27m
Length of Day
10h 33m
First Quarter, 59% of the Moon is Illuminated
Feb 7
First Quarter
Feb 14
Full
Feb 22
Last Quarter
Mar 1
New
Mar 8
First Quarter

Hourly Weather History & Observations

Time (CST) Temp. Windchill Dew Point Humidity Pressure Visibility Wind Dir Wind Speed Gust Speed Precip Events Conditions
12:52 AM 10.9 °F 2.9 °F -0.9 °F 59% 30.50 in 10.0 mi NNE 4.6 mph - N/A   Overcast
1:52 AM 10.9 °F 4.7 °F -0.9 °F 59% 30.49 in 10.0 mi NE 3.5 mph - N/A   Overcast
2:52 AM 10.0 °F 3.6 °F -2.0 °F 58% 30.48 in 10.0 mi Variable 3.5 mph - N/A   Overcast
3:52 AM 10.9 °F 4.7 °F -0.9 °F 59% 30.47 in 10.0 mi ENE 3.5 mph - N/A   Overcast
4:52 AM 10.9 °F 2.9 °F -0.0 °F 61% 30.47 in 10.0 mi ENE 4.6 mph - N/A   Overcast
5:52 AM 10.9 °F - -0.0 °F 61% 30.47 in 10.0 mi Calm Calm - N/A   Overcast
6:52 AM 10.9 °F 4.7 °F 1.0 °F 64% 30.47 in 10.0 mi Variable 3.5 mph - N/A   Overcast
7:52 AM 12.0 °F 4.1 °F 1.0 °F 61% 30.46 in 10.0 mi Variable 4.6 mph - N/A   Overcast
8:52 AM 12.9 °F 3.8 °F 1.0 °F 59% 30.46 in 10.0 mi East 5.8 mph - N/A   Overcast
9:52 AM 14.0 °F 5.1 °F 1.9 °F 59% 30.46 in 10.0 mi East 5.8 mph - N/A   Overcast
10:52 AM 16.0 °F - 3.0 °F 57% 30.44 in 10.0 mi Calm Calm - N/A   Overcast
11:52 AM 18.0 °F 12.7 °F 5.0 °F 57% 30.41 in 10.0 mi Variable 3.5 mph - N/A   Overcast
12:52 PM 19.9 °F 11.1 °F 6.1 °F 55% 30.37 in 10.0 mi South 6.9 mph - N/A   Overcast
1:52 PM 19.9 °F - 8.1 °F 60% 30.33 in 10.0 mi Calm Calm - N/A   Overcast
2:10 PM 19.9 °F - 8.1 °F 60% 30.29 in 10.0 mi Calm Calm - N/A   Overcast
2:52 PM 21.0 °F 16.2 °F 9.0 °F 60% 30.31 in 10.0 mi Variable 3.5 mph - N/A   Overcast
3:52 PM 21.0 °F 16.2 °F 10.0 °F 63% 30.30 in 10.0 mi Variable 3.5 mph - N/A   Overcast
4:52 PM 21.9 °F 17.2 °F 12.0 °F 66% 30.29 in 10.0 mi Variable 3.5 mph - N/A   Overcast
5:41 PM 21.9 °F 17.2 °F 12.9 °F 68% 30.24 in 10.0 mi Variable 3.5 mph - N/A   Overcast
5:48 PM 21.2 °F 16.4 °F 12.2 °F 68% 30.24 in 10.0 mi ESE 3.5 mph - N/A   Overcast
5:52 PM 21.9 °F 14.5 °F 12.9 °F 68% 30.28 in 10.0 mi SE 5.8 mph - N/A   Overcast
6:25 PM 21.9 °F 14.5 °F 14.0 °F 72% 30.24 in 10.0 mi SE 5.8 mph - N/A   Overcast
6:52 PM 21.9 °F - 15.1 °F 75% 30.29 in 10.0 mi Calm Calm - N/A   Overcast
7:52 PM 21.9 °F - 15.1 °F 75% 30.28 in 10.0 mi Calm Calm - N/A   Overcast
8:52 PM 21.9 °F - 15.1 °F 75% 30.28 in 10.0 mi Calm Calm - N/A   Overcast
9:52 PM 23.0 °F - 15.1 °F 72% 30.28 in 10.0 mi Calm Calm - N/A   Overcast
10:52 PM 21.9 °F - 15.1 °F 75% 30.25 in 10.0 mi Calm Calm - N/A   Overcast
11:52 PM 23.0 °F - 15.1 °F 72% 30.24 in 10.0 mi Calm Calm - N/A   Overcast